Location: Unspecified
(41.5000°N, 0.0000°E)
Time: 10:09:21
(UTC+00:00)

Courier 1B Rocket - Pass Details

Date: 02 July 2019
Orbit: 920 x 1202 km, 28.2° (Epoch: 16 October)

Event Time Altitude Azimuth Distance (km) Brightness Sun altitude
Rises 02:58:49 0° 254° (WSW) 4,054 - -13.8°
Reaches altitude 10° 03:02:10 10° 242° (WSW) 3,060 - -13.4°
Exits shadow 03:04:05 17° 232° (SW) 2,567 6.6 -13.1°
Maximum altitude 03:08:16 27° 189° (S) 1,998 6.2 -12.6°
Drops below altitude 10° 03:14:04 10° 134° (SE) 2,900 7.5 -11.9°
Sets 03:17:09 0° 123° (ESE) 3,805 8.3 -11.5°
